Time,TemperatureF,DewpointF,PressureIn,WindDirection,WindDirectionDegrees,WindSpeedMPH,WindSpeedGustMPH,Humidity,HourlyPrecipIn,Conditions,Clouds,dailyrainin,SoftwareType,DateUTC
2013-03-10 00:02:00,-999.0,-99.9,29.79,NE,53,8.0,11.0,-999,-99.99,,,-99.99,,2013-03-10 09:02:00,
2013-03-10 00:11:00,23.0,-99.9,29.79,NE,56,8.0,9.0,-999,-99.99,,,-99.99,,2013-03-10 09:11:00,
2013-03-10 00:21:00,-999.0,-99.9,29.80,NE,55,9.0,10.0,-999,-99.99,,,-99.99,,2013-03-10 09:21:00,
2013-03-10 00:32:00,-999.0,-99.9,29.81,NE,51,8.0,9.0,-999,-99.99,,,-99.99,,2013-03-10 09:32:00,
2013-03-10 00:42:00,24.0,-99.9,29.81,NE,48,8.0,9.0,-999,-99.99,,,-99.99,,2013-03-10 09:42:00,
2013-03-10 00:52:00,-999.0,-99.9,29.82,NE,43,7.0,10.0,-999,-99.99,,,-99.99,,2013-03-10 09:52:00,
2013-03-10 01:02:00,-999.0,-99.9,29.83,NE,37,5.0,7.0,-999,-99.99,,,-99.99,,2013-03-10 10:02:00,
2013-03-10 01:11:00,-999.0,-99.9,29.83,NE,41,7.0,9.0,-999,-99.99,,,-99.99,,2013-03-10 10:11:00,
2013-03-10 01:22:00,24.0,-99.9,29.84,NNE,33,7.0,9.0,-999,-99.99,,,-99.99,,2013-03-10 10:22:00,
2013-03-10 01:32:00,-999.0,-99.9,29.84,NE,43,10.0,12.0,-999,-99.99,,,-99.99,,2013-03-10 10:32:00,
2013-03-10 01:42:00,24.0,-99.9,29.85,NE,47,10.0,13.0,-999,-99.99,,,-99.99,,2013-03-10 10:42:00,
2013-03-10 01:52:00,-999.0,-99.9,29.86,NE,47,9.0,10.0,-999,-99.99,,,-99.99,,2013-03-10 10:52:00,
2013-03-10 03:02:00,-999.0,-99.9,29.87,NNE,19,5.0,9.0,-999,-99.99,,,-99.99,,2013-03-10 11:02:00,
2013-03-10 03:12:00,23.0,-99.9,29.87,North,357,4.0,6.0,-999,-99.99,,,-99.99,,2013-03-10 11:12:00,
2013-03-10 03:22:00,-999.0,-99.9,29.88,North,351,4.0,7.0,-999,-99.99,,,-99.99,,2013-03-10 11:22:00,
2013-03-10 03:32:00,-999.0,-99.9,29.89,North,349,4.0,5.0,-999,-99.99,,,-99.99,,2013-03-10 11:32:00,
2013-03-10 03:42:00,-999.0,-99.9,29.90,North,355,5.0,6.0,-999,-99.99,,,-99.99,,2013-03-10 11:42:00,
2013-03-10 03:52:00,-999.0,-99.9,29.90,WNW,300,6.0,7.0,-999,-99.99,,,-99.99,,2013-03-10 11:52:00,
2013-03-10 04:02:00,-999.0,-99.9,29.91,WNW,285,8.0,9.0,-999,-99.99,,,-99.99,,2013-03-10 12:02:00,
2013-03-10 04:11:00,21.0,-99.9,29.92,WNW,289,8.0,10.0,-999,-99.99,,,-99.99,,2013-03-10 12:11:00,
2013-03-10 04:21:00,-999.0,-99.9,29.93,WNW,285,9.0,11.0,-999,-99.99,,,-99.99,,2013-03-10 12:21:00,
2013-03-10 04:32:00,-999.0,-99.9,29.93,NW,305,10.0,12.0,-999,-99.99,,,-99.99,,2013-03-10 12:32:00,
2013-03-10 04:42:00,18.0,-99.9,29.94,WNW,302,9.0,10.0,-999,-99.99,,,-99.99,,2013-03-10 12:42:00,
2013-03-10 04:52:00,-999.0,-99.9,29.94,WNW,292,9.0,10.0,-999,-99.99,,,-99.99,,2013-03-10 12:52:00,
2013-03-10 05:01:00,-999.0,-99.9,29.96,West,274,9.0,9.0,-999,-99.99,,,-99.99,,2013-03-10 13:01:00,
2013-03-10 05:11:00,-999.0,-99.9,29.96,WNW,286,7.0,8.0,-999,-99.99,,,-99.99,,2013-03-10 13:11:00,
2013-03-10 05:21:00,-999.0,-99.9,29.97,West,261,6.0,8.0,-999,-99.99,,,-99.99,,2013-03-10 13:21:00,
2013-03-10 05:32:00,-999.0,-99.9,29.97,WNW,299,2.0,6.0,-999,-99.99,,,-99.99,,2013-03-10 13:32:00,
2013-03-10 05:42:00,12.0,-99.9,29.98,WNW,290,3.0,5.0,-999,-99.99,,,-99.99,,2013-03-10 13:42:00,
2013-03-10 05:52:00,-999.0,-99.9,29.99,WNW,293,8.0,10.0,-999,-99.99,,,-99.99,,2013-03-10 13:52:00,
2013-03-10 06:02:00,-999.0,-99.9,29.99,WNW,283,7.0,8.0,-999,-99.99,,,-99.99,,2013-03-10 14:02:00,
2013-03-10 06:12:00,12.0,-99.9,30.00,WNW,290,9.0,10.0,-999,-99.99,,,-99.99,,2013-03-10 14:12:00,
2013-03-10 06:22:00,-999.0,-99.9,30.00,WNW,300,13.0,14.0,-999,-99.99,,,-99.99,,2013-03-10 14:22:00,
2013-03-10 06:32:00,-999.0,-99.9,30.02,WNW,296,13.0,16.0,-999,-99.99,,,-99.99,,2013-03-10 14:32:00,
2013-03-10 06:42:00,13.0,-99.9,30.02,WNW,301,13.0,14.0,-999,-99.99,,,-99.99,,2013-03-10 14:42:00,
2013-03-10 06:52:00,-999.0,-99.9,30.03,NW,315,12.0,13.0,-999,-99.99,,,-99.99,,2013-03-10 14:52:00,
2013-03-10 07:01:00,-999.0,-99.9,30.04,WNW,299,7.0,10.0,-999,-99.99,,,-99.99,,2013-03-10 15:01:00,
2013-03-10 07:11:00,-999.0,-99.9,30.05,West,280,7.0,10.0,-999,-99.99,,,-99.99,,2013-03-10 15:11:00,
2013-03-10 07:21:00,11.0,-99.9,30.06,WNW,291,10.0,12.0,-999,-99.99,,,-99.99,,2013-03-10 15:21:00,
2013-03-10 07:32:00,-999.0,-99.9,30.07,WNW,287,11.0,13.0,-999,-99.99,,,-99.99,,2013-03-10 15:32:00,
2013-03-10 07:42:00,13.0,-99.9,30.08,WNW,296,9.0,12.0,-999,-99.99,,,-99.99,,2013-03-10 15:42:00,
2013-03-10 07:52:00,-999.0,-99.9,30.08,WNW,298,9.0,11.0,-999,-99.99,,,-99.99,,2013-03-10 15:52:00,
2013-03-10 08:02:00,-999.0,-99.9,30.09,WNW,301,9.0,11.0,-999,-99.99,,,-99.99,,2013-03-10 16:02:00,
2013-03-10 08:12:00,14.0,-99.9,30.09,WNW,290,10.0,13.0,-999,-99.99,,,-99.99,,2013-03-10 16:12:00,
2013-03-10 08:22:00,-999.0,-99.9,30.09,WNW,295,11.0,13.0,-999,-99.99,,,-99.99,,2013-03-10 16:22:00,
2013-03-10 08:32:00,-999.0,-99.9,30.10,WNW,287,14.0,15.0,-999,-99.99,,,-99.99,,2013-03-10 16:32:00,
2013-03-10 08:42:00,-999.0,-99.9,30.11,West,281,12.0,13.0,-999,-99.99,,,-99.99,,2013-03-10 16:42:00,
2013-03-10 08:52:00,-999.0,-99.9,30.11,West,280,13.0,14.0,-999,-99.99,,,-99.99,,2013-03-10 16:52:00,
2013-03-10 09:01:00,-999.0,-99.9,30.12,WNW,287,15.0,16.0,-999,-99.99,,,-99.99,,2013-03-10 17:01:00,
2013-03-10 09:11:00,8.0,-99.9,30.12,West,280,15.0,17.0,-999,-99.99,,,-99.99,,2013-03-10 17:11:00,
2013-03-10 09:21:00,-999.0,-99.9,30.13,WNW,284,13.0,14.0,-999,-99.99,,,-99.99,,2013-03-10 17:21:00,
2013-03-10 09:32:00,-999.0,-99.9,30.13,WNW,300,14.0,15.0,-999,-99.99,,,-99.99,,2013-03-10 17:32:00,
2013-03-10 09:41:00,12.0,-99.9,30.14,WNW,294,15.0,17.0,-999,-99.99,,,-99.99,,2013-03-10 17:41:00,
2013-03-10 09:52:00,-999.0,-99.9,30.15,WNW,298,15.0,18.0,-999,-99.99,,,-99.99,,2013-03-10 17:52:00,
2013-03-10 10:01:00,-999.0,-99.9,30.16,WNW,301,12.0,16.0,-999,-99.99,,,-99.99,,2013-03-10 18:01:00,
2013-03-10 10:12:00,11.0,-99.9,30.16,NW,304,12.0,13.0,-999,-99.99,,,-99.99,,2013-03-10 18:12:00,
2013-03-10 10:22:00,-999.0,-99.9,30.17,WNW,299,15.0,16.0,-999,-99.99,,,-99.99,,2013-03-10 18:22:00,
2013-03-10 10:32:00,-999.0,-99.9,30.18,NW,305,12.0,15.0,-999,-99.99,,,-99.99,,2013-03-10 18:32:00,
2013-03-10 10:42:00,10.0,-99.9,30.19,NW,313,11.0,13.0,-999,-99.99,,,-99.99,,2013-03-10 18:42:00,
2013-03-10 10:52:00,-999.0,-99.9,30.19,WNW,301,15.0,18.0,-999,-99.99,,,-99.99,,2013-03-10 18:52:00,
2013-03-10 11:02:00,-999.0,-99.9,30.20,WNW,298,15.0,16.0,-999,-99.99,,,-99.99,,2013-03-10 19:02:00,
2013-03-10 11:11:00,10.0,-99.9,30.21,WNW,282,12.0,15.0,-999,-99.99,,,-99.99,,2013-03-10 19:11:00,
2013-03-10 11:22:00,-999.0,-99.9,30.22,West,274,10.0,12.0,-999,-99.99,,,-99.99,,2013-03-10 19:22:00,
2013-03-10 11:32:00,-999.0,-99.9,30.22,WNW,284,11.0,14.0,-999,-99.99,,,-99.99,,2013-03-10 19:32:00,
2013-03-10 11:42:00,8.0,-99.9,30.23,West,280,10.0,11.0,-999,-99.99,,,-99.99,,2013-03-10 19:42:00,
2013-03-10 11:53:00,-999.0,-99.9,30.23,WNW,288,12.0,12.0,-999,-99.99,,,-99.99,,2013-03-10 19:53:00,
2013-03-10 12:02:00,-999.0,-99.9,30.24,West,277,11.0,13.0,-999,-99.99,,,-99.99,,2013-03-10 20:02:00,
2013-03-10 12:13:00,-999.0,-99.9,30.24,WNW,288,10.0,11.0,-999,-99.99,,,-99.99,,2013-03-10 20:13:00,
2013-03-10 12:22:00,10.0,-99.9,30.24,WNW,303,13.0,14.0,-999,-99.99,,,-99.99,,2013-03-10 20:22:00,
2013-03-10 12:33:00,-999.0,-99.9,30.26,WNW,292,11.0,13.0,-999,-99.99,,,-99.99,,2013-03-10 20:33:00,
2013-03-10 12:43:00,11.0,-99.9,30.26,WNW,282,12.0,13.0,-999,-99.99,,,-99.99,,2013-03-10 20:43:00,
2013-03-10 12:53:00,-999.0,-99.9,30.27,West,279,15.0,16.0,-999,-99.99,,,-99.99,,2013-03-10 20:53:00,
2013-03-10 13:02:00,-999.0,-99.9,30.28,West,273,13.0,16.0,-999,-99.99,,,-99.99,,2013-03-10 21:02:00,
2013-03-10 13:12:00,10.0,-99.9,30.29,West,278,11.0,14.0,-999,-99.99,,,-99.99,,2013-03-10 21:12:00,
2013-03-10 13:23:00,-999.0,-99.9,30.29,West,279,13.0,15.0,-999,-99.99,,,-99.99,,2013-03-10 21:23:00,
2013-03-10 13:33:00,-999.0,-99.9,30.30,WNW,297,9.0,14.0,-999,-99.99,,,-99.99,,2013-03-10 21:33:00,
2013-03-10 13:43:00,-999.0,-99.9,30.32,WNW,296,6.0,8.0,-999,-99.99,,,-99.99,,2013-03-10 21:43:00,
2013-03-10 13:53:00,-999.0,-99.9,30.32,SW,236,6.0,7.0,-999,-99.99,,,-99.99,,2013-03-10 21:53:00,
2013-03-10 14:03:00,-999.0,-99.9,30.33,West,267,7.0,11.0,-999,-99.99,,,-99.99,,2013-03-10 22:03:00,
2013-03-10 14:12:00,14.0,-99.9,30.33,West,265,11.0,12.0,-999,-99.99,,,-99.99,,2013-03-10 22:12:00,
2013-03-10 14:22:00,-999.0,-99.9,30.34,WNW,296,9.0,12.0,-999,-99.99,,,-99.99,,2013-03-10 22:22:00,
2013-03-10 14:33:00,-999.0,-99.9,30.36,West,261,11.0,13.0,-999,-99.99,,,-99.99,,2013-03-10 22:33:00,
2013-03-10 14:43:00,13.0,-99.9,30.36,WSW,258,8.0,10.0,-999,-99.99,,,-99.99,,2013-03-10 22:43:00,
2013-03-10 14:53:00,-999.0,-99.9,30.37,WSW,251,7.0,9.0,-999,-99.99,,,-99.99,,2013-03-10 22:53:00,
2013-03-10 15:03:00,-999.0,-99.9,30.37,West,279,9.0,11.0,-999,-99.99,,,-99.99,,2013-03-10 23:03:00,
2013-03-10 15:12:00,14.0,-99.9,30.38,West,275,9.0,11.0,-999,-99.99,,,-99.99,,2013-03-10 23:12:00,
2013-03-10 15:23:00,-999.0,-99.9,30.38,West,281,13.0,15.0,-999,-99.99,,,-99.99,,2013-03-10 23:23:00,
2013-03-10 15:33:00,-999.0,-99.9,30.39,WNW,285,13.0,14.0,-999,-99.99,,,-99.99,,2013-03-10 23:33:00,
2013-03-10 15:43:00,14.0,-99.9,30.39,WNW,287,12.0,13.0,-999,-99.99,,,-99.99,,2013-03-10 23:43:00,
2013-03-10 15:53:00,-999.0,-99.9,30.40,West,281,13.0,14.0,-999,-99.99,,,-99.99,,2013-03-10 23:53:00,
2013-03-10 16:03:00,-999.0,-99.9,30.40,WNW,284,15.0,17.0,-999,-99.99,,,-99.99,,2013-03-11 00:03:00,
2013-03-10 16:13:00,14.0,-99.9,30.40,WNW,288,16.0,19.0,-999,-99.99,,,-99.99,,2013-03-11 00:13:00,
2013-03-10 16:23:00,-999.0,-99.9,30.40,West,281,15.0,18.0,-999,-99.99,,,-99.99,,2013-03-11 00:23:00,
2013-03-10 16:33:00,-999.0,-99.9,30.41,WNW,295,14.0,17.0,-999,-99.99,,,-99.99,,2013-03-11 00:33:00,
2013-03-10 16:43:00,14.0,-99.9,30.41,WNW,296,15.0,17.0,-999,-99.99,,,-99.99,,2013-03-11 00:43:00,
2013-03-10 16:53:00,-999.0,-99.9,30.42,WNW,297,11.0,12.0,-999,-99.99,,,-99.99,,2013-03-11 00:53:00,
2013-03-10 17:03:00,-999.0,-99.9,30.42,WNW,297,11.0,14.0,-999,-99.99,,,-99.99,,2013-03-11 01:03:00,
2013-03-10 17:13:00,-999.0,-99.9,30.43,WNW,284,12.0,16.0,-999,-99.99,,,-99.99,,2013-03-11 01:13:00,
2013-03-10 17:23:00,13.0,-99.9,30.43,West,279,13.0,15.0,-999,-99.99,,,-99.99,,2013-03-11 01:23:00,
2013-03-10 17:33:00,-999.0,-99.9,30.43,WNW,292,15.0,17.0,-999,-99.99,,,-99.99,,2013-03-11 01:33:00,
2013-03-10 17:43:00,14.0,-99.9,30.44,WNW,299,15.0,17.0,-999,-99.99,,,-99.99,,2013-03-11 01:43:00,
2013-03-10 17:53:00,-999.0,-99.9,30.44,WNW,294,15.0,17.0,-999,-99.99,,,-99.99,,2013-03-11 01:53:00,
2013-03-10 18:03:00,-999.0,-99.9,30.44,NW,304,18.0,20.0,-999,-99.99,,,-99.99,,2013-03-11 02:03:00,
2013-03-10 18:13:00,13.0,-99.9,30.45,WNW,295,16.0,20.0,-999,-99.99,,,-99.99,,2013-03-11 02:13:00,
2013-03-10 18:23:00,-999.0,-99.9,30.45,WNW,291,18.0,20.0,-999,-99.99,,,-99.99,,2013-03-11 02:23:00,
2013-03-10 18:32:00,-999.0,-99.9,30.45,WNW,297,18.0,23.0,-999,-99.99,,,-99.99,,2013-03-11 02:32:00,
2013-03-10 18:42:00,-999.0,-99.9,30.46,WNW,294,17.0,21.0,-999,-99.99,,,-99.99,,2013-03-11 02:42:00,
2013-03-10 18:53:00,12.0,-99.9,30.46,WNW,291,17.0,21.0,-999,-99.99,,,-99.99,,2013-03-11 02:53:00,
2013-03-10 19:02:00,-999.0,-99.9,30.47,NW,312,15.0,18.0,-999,-99.99,,,-99.99,,2013-03-11 03:02:00,
2013-03-10 19:12:00,11.0,-99.9,30.47,NW,310,15.0,16.0,-999,-99.99,,,-99.99,,2013-03-11 03:12:00,
2013-03-10 19:22:00,-999.0,-99.9,30.48,West,269,7.0,13.0,-999,-99.99,,,-99.99,,2013-03-11 03:22:00,
2013-03-10 19:32:00,-999.0,-99.9,30.49,West,266,11.0,13.0,-999,-99.99,,,-99.99,,2013-03-11 03:32:00,
2013-03-10 19:43:00,11.0,-99.9,30.49,WNW,285,12.0,15.0,-999,-99.99,,,-99.99,,2013-03-11 03:43:00,
2013-03-10 19:53:00,-999.0,-99.9,30.49,WNW,291,7.0,8.0,-999,-99.99,,,-99.99,,2013-03-11 03:53:00,
2013-03-10 20:03:00,-999.0,-99.9,30.50,West,275,6.0,13.0,-999,-99.99,,,-99.99,,2013-03-11 04:03:00,
2013-03-10 20:12:00,-999.0,-99.9,30.50,WNW,287,12.0,14.0,-999,-99.99,,,-99.99,,2013-03-11 04:12:00,
2013-03-10 20:22:00,-999.0,-99.9,30.50,WNW,284,11.0,14.0,-999,-99.99,,,-99.99,,2013-03-11 04:22:00,
2013-03-10 20:33:00,-999.0,-99.9,30.51,WNW,298,12.0,14.0,-999,-99.99,,,-99.99,,2013-03-11 04:33:00,
2013-03-10 20:43:00,3.0,-99.9,30.52,NW,316,4.0,15.0,-999,-99.99,,,-99.99,,2013-03-11 04:43:00,
2013-03-10 20:53:00,-999.0,-99.9,30.52,WNW,300,9.0,13.0,-999,-99.99,,,-99.99,,2013-03-11 04:53:00,
2013-03-10 21:04:00,-999.0,-99.9,30.53,WNW,300,10.0,12.0,-999,-99.99,,,-99.99,,2013-03-11 05:04:00,
2013-03-10 21:22:00,-999.0,-99.9,30.53,NW,307,4.0,6.0,-999,-99.99,,,-99.99,,2013-03-11 05:22:00,
2013-03-10 21:32:00,-999.0,-99.9,30.54,NW,304,3.0,4.0,-999,-99.99,,,-99.99,,2013-03-11 05:32:00,
2013-03-10 21:43:00,-999.0,-99.9,30.54,NE,43,3.0,3.0,-999,-99.99,,,-99.99,,2013-03-11 05:43:00,
2013-03-10 21:52:00,-999.0,-99.9,30.54,NE,39,6.0,6.0,-999,-99.99,,,-99.99,,2013-03-11 05:52:00,
2013-03-10 22:02:00,-999.0,-99.9,30.55,ENE,61,7.0,8.0,-999,-99.99,,,-99.99,,2013-03-11 06:02:00,
2013-03-10 22:12:00,4.0,-99.9,30.55,ENE,67,7.0,9.0,-999,-99.99,,,-99.99,,2013-03-11 06:12:00,
2013-03-10 22:22:00,-999.0,-99.9,30.56,ENE,73,9.0,10.0,-999,-99.99,,,-99.99,,2013-03-11 06:22:00,
2013-03-10 22:33:00,-999.0,-99.9,30.56,ENE,68,10.0,11.0,-999,-99.99,,,-99.99,,2013-03-11 06:33:00,
2013-03-10 22:42:00,4.0,-99.9,30.56,NE,48,7.0,11.0,-999,-99.99,,,-99.99,,2013-03-11 06:42:00,
2013-03-10 22:53:00,-999.0,-99.9,30.57,NE,49,7.0,8.0,-999,-99.99,,,-99.99,,2013-03-11 06:53:00,
2013-03-10 23:03:00,-999.0,-99.9,30.57,ENE,61,5.0,8.0,-999,-99.99,,,-99.99,,2013-03-11 07:03:00,
2013-03-10 23:12:00,-999.0,-99.9,30.57,ENE,76,3.0,4.0,-999,-99.99,,,-99.99,,2013-03-11 07:12:00,
2013-03-10 23:22:00,-999.0,-99.9,30.58,East,101,3.0,4.0,-999,-99.99,,,-99.99,,2013-03-11 07:22:00,
2013-03-10 23:33:00,-999.0,-99.9,30.58,East,85,2.0,5.0,-999,-99.99,,,-99.99,,2013-03-11 07:33:00,
2013-03-10 23:42:00,4.0,-99.9,30.59,ESE,110,3.0,4.0,-999,-99.99,,,-99.99,,2013-03-11 07:42:00,
2013-03-10 23:52:00,-999.0,-99.9,30.59,ESE,112,2.0,3.0,-999,-99.99,,,-99.99,,2013-03-11 07:52:00,